Home > Weather > Hohhot > Past weeks

Flag for China Past Weather in Hohhot, Inner Mongolia, China — Yesterday and Last 2 Weeks

Now
64 °F

Passing clouds.


Feels Like: 64 °F
Forecast: 59 / 82 °F
Wind: 3 mph from Northeast

Location: Hohhot Airport

Current Time: Jun 1, 2016 at 7:55:26 AM

Latest Report: Jun 1, 2016 at 7:00 AM


Visibility: N/A

Pressure: 29.95 "Hg (26.47 "Hg at 1053m altitude)

Humidity: 60%

Dew Point: 50 °F

Location of HohhotLocation

Past Weather in Hohhot — Graph

°F

Hohhot Temperature Yesterday

Maximum temperature yesterday: 84 °F (at 5:00 PM)
Minimum temperature yesterday: 63 °F (at 2:00 AM)
Average temperature yesterday: 73 °F

High & Low Weather Summary for the Past Weeks

 TemperatureHumidityPressure
High88 °F (May 30, 5:00 PM)100% (May 25, 6:00 AM)30.12 "Hg (May 25, 6:00 AM)
Low39 °F (May 25, 4:00 AM)9% (May 19, 5:00 PM)29.65 "Hg (May 30, 6:00 PM)
Average64 °F45%29.90 "Hg
* Reported May 17 6:00 AM — Jun 1 6:00 AM, Hohhot, Weather by CustomWeather, © 2016

Note: Actual official high and low records may vary slightly from our data, if they occured in-between our weather recording intervals... More about our weather records

Advertising

Hohhot Weather History for the Previous 24 Hours

Scroll right to see more
 ConditionsComfort  
Time TempWeatherWind HumidityBarometerVisibility
6:00 AM
Wed, Jun 1
63 °FPassing clouds.3 mph59%29.95 "HgN/A
5:00 AM61 °FPassing clouds.6 mph59%29.92 "HgN/A
4:00 AM63 °FPassing clouds.6 mph56%29.92 "HgN/A
3:00 AM63 °FPassing clouds.6 mph56%29.89 "HgN/A
2:00 AM66 °FPassing clouds.8 mph52%29.89 "HgN/A
1:00 AM66 °FPassing clouds.8 mph46%29.89 "HgN/A
12:00 AM66 °FPassing clouds.1 mph46%29.89 "HgN/A
11:00 PM
Tue, May 31
70 °FPassing clouds.3 mph35%29.86 "HgN/A
10:00 PM72 °FPassing clouds.6 mph36%29.86 "HgN/A
9:00 PM72 °FPassing clouds.10 mph41%29.83 "HgN/A
8:00 PM75 °FPassing clouds.6 mph36%29.80 "HgN/A
7:00 PM79 °FScattered clouds.10 mph28%29.77 "HgN/A
6:00 PM79 °FScattered clouds.17 mph28%29.77 "HgN/A
5:00 PM84 °FPassing clouds.6 mph22%29.74 "HgN/A
4:00 PM82 °FPassing clouds.6 mph25%29.74 "HgN/A
3:00 PM82 °FPassing clouds.6 mph23%29.77 "HgN/A
2:00 PM81 °FScattered clouds.10 mph24%29.77 "HgN/A
1:00 PM79 °FScattered clouds.1 mph24%29.77 "HgN/A
12:00 PM77 °FScattered clouds.1 mph24%29.77 "HgN/A
11:00 AM77 °FPassing clouds.3 mph24%29.77 "HgN/A
10:00 AM77 °FPassing clouds.6 mph28%29.77 "HgN/A
9:00 AM75 °FPassing clouds.6 mph29%29.77 "HgN/A
8:00 AM73 °FSunny.3 mph31%29.77 "Hg10 mi
7:00 AM66 °FSunny.1 mph46%29.77 "Hg10 mi
Weather by CustomWeather, © 2016

See weather overviewHow to use our weather pages